Hazard, Kentucky, United States (41701)
Lat: 37.25N, Lon: 83.19W
Wx Zone: KYZ115
Local Info
Past Weather Observations for Thursday, October 23, 2014

NOTE: This archive is for the closest National Weather Service station to Hazard. Information may differ from the station used for current weather conditions.

Click here for Long-term Archive

Time Weather Temperature Dewpoint Humidity Pressure Winds Precip Visibility
23:53
Clear
46°F / 8°C 39°F / 4°C 76% 30.12 in
(1020 mb)
Calm - 10SM
22:53
Clear
46°F / 8°C 39°F / 4°C 76% 30.12 in
(1020 mb)
Calm - 10SM
21:53
Clear
48°F / 9°C 39°F / 4°C 71% 30.12 in
(1020 mb)
Calm - 10SM
20:53
Clear
52°F / 11°C 39°F / 4°C 62% 30.15 in
(1021 mb)
SE 3.5 mph
(SE 6 kph)
- 10SM
19:53
Clear
54°F / 12°C 39°F / 4°C 58% 30.15 in
(1021 mb)
Calm - 10SM
18:53
Clear
52°F / 11°C 39°F / 4°C 62% 30.12 in
(1020 mb)
Calm - 10SM
17:53
Clear
54°F / 12°C 39°F / 4°C 58% 30.12 in
(1020 mb)
Calm - 10SM
16:53
Clear
57°F / 14°C 39°F / 4°C 51% 30.12 in
(1020 mb)
Calm - 10SM
15:53
Clear
57°F / 14°C 39°F / 4°C 51% 30.12 in
(1020 mb)
Calm - 10SM
14:53
Clear
57°F / 14°C 39°F / 4°C 51% 30.15 in
(1021 mb)
Calm - 10SM
13:53
Clear
59°F / 15°C 39°F / 4°C 48% 30.15 in
(1021 mb)
Calm - 10SM
12:53
Partly Cloudy
55°F / 13°C 39°F / 4°C 55% 30.18 in
(1022 mb)
Calm - 10SM
11:53
Partly Cloudy
54°F / 12°C 37°F / 3°C 54% 30.21 in
(1023 mb)
Calm - 10SM
10:53
Overcast
52°F / 11°C 39°F / 4°C 62% 30.24 in
(1024 mb)
Calm - 10SM
09:53
Overcast
52°F / 11°C 39°F / 4°C 62% 30.24 in
(1024 mb)
Calm - 10SM
09:26
Overcast
50°F / 10°C 39°F / 4°C 67% 30.24 in
(1024 mb)
Calm - 10SM
08:53
Overcast
48°F / 9°C 39°F / 4°C 71% 30.24 in
(1024 mb)
Calm - 10SM
08:46
Overcast
48°F / 9°C 41°F / 5°C 76% 30.24 in
(1024 mb)
Calm - 10SM
08:05
Overcast
46°F / 8°C 39°F / 4°C 76% 30.24 in
(1024 mb)
Variable 3.5 mph
(Variable 6 kph)
- 10SM
07:53
Overcast
46°F / 8°C 37°F / 3°C 71% 30.24 in
(1024 mb)
NW 4.6 mph
(NW 7 kph)
- 10SM
06:53
Overcast
45°F / 7°C 39°F / 4°C 81% 30.21 in
(1023 mb)
Calm - 10SM
05:53
Overcast
46°F / 8°C 37°F / 3°C 71% 30.21 in
(1023 mb)
Calm - 10SM
04:53
Overcast
46°F / 8°C 39°F / 4°C 76% 30.21 in
(1023 mb)
Calm - 10SM
03:53
Overcast
46°F / 8°C 39°F / 4°C 76% 30.21 in
(1023 mb)
Calm - 10SM
02:53
Overcast
46°F / 8°C 39°F / 4°C 76% 30.21 in
(1023 mb)
Calm - 10SM
01:53
Overcast
46°F / 8°C 39°F / 4°C 76% 30.21 in
(1023 mb)
Calm - 10SM
00:53
Overcast
46°F / 8°C 39°F / 4°C 76% 30.21 in
(1023 mb)
Calm - 10SM
Time Weather Temperature Dewpoint Humidity Pressure Winds Precip Visibility


Weather for websites

WeatherForYou.com, LLC is not responsible for any damages or problems caused by this service. Current weather conditions are obtained from the closest station including government and personal stations which may have varying degrees of accuracy. Weather forecasts are derived from the NOAA NDFD. Like all things, this site belongs to Jesus Christ... He just trusts me to maintain it. If you have any questions or comments email webmaster@weatherforyou.com

Copyright © 2014, WeatherForYou.com LLC. All rights reserved.